Probability
0 0 0 0 0 0 0 0 0 0 1 0 0 0 0 1 2 4 12 34 48 35 16 7 5 3 2 1 1 2 2 1 0 0 0 0 0 0 0 0 0 0 0 0 0 0 0 0 0
0 0 0 0 0 0 0 0 0 0 1 0 0 1 1 3 5 6 17 38 43 26 12 8 6 4 3 2 2 2 3 2 1 0 0 0 0 0 0 0 0 0 0 0 0 0 0 0 0
0 0 0 0 0 0 0 0 0 0 0 1 2 4 6 7 7 8 20 33 30 16 10 11 10 8 5 4 3 3 3 2 1 0 0 0 0 1 1 1 0 0 0 0 0 0 0 0 0
0 0 0 0 0 0 0 0 0 0 0 1 6 14 19 18 12 11 18 23 19 12 11 13 14 12 10 7 4 3 3 3 4 2 1 1 2 3 3 2 1 1 0 0 0 0 0 0 0
0 0 0 0 0 0 0 0 0 0 0 2 11 26 34 29 19 13 15 18 18 16 14 14 16 15 14 12 9 8 8 9 10 9 8 8 8 8 6 4 3 2 1 0 0 1 1 1 1
0 0 0 0 0 0 0 0 0 0 2 5 14 31 39 32 21 14 12 16 23 25 20 16 16 16 16 15 15 16 17 17 19 21 20 19 18 15 11 8 6 4 3 1 2 3 3 2 2
0 0 0 0 0 0 0 0 0 1 5 9 17 31 40 36 26 15 11 19 31 33 24 16 14 14 15 17 20 23 24 25 26 27 27 25 23 19 15 12 10 9 8 5 5 6 5 4 4
0 0 0 0 0 0 0 0 0 3 8 13 19 31 44 45 34 22 18 28 40 38 24 14 12 12 12 15 20 24 28 30 30 28 24 21 18 16 14 14 16 17 15 12 11 11 10 8 6
0 0 0 0 0 0 0 0 0 3 8 13 21 33 46 48 39 30 31 39 47 41 24 13 11 9 8 12 18 21 22 26 25 22 21 16 11 9 10 18 31 32 26 21 17 17 15 11 8
0 0 0 0 0 0 0 1 2 4 8 15 24 37 45 44 37 35 41 49 51 44 28 17 16 15 14 16 19 14 13 16 14 17 23 19 12 12 16 33 51 50 39 30 25 22 18 11 7
0 0 0 0 0 0 0 2 5 8 12 19 29 40 43 39 36 40 47 52 52 46 34 26 26 28 30 33 26 15 16 20 18 24 34 29 23 25 34 54 64 59 47 37 32 28 20 11 7
0 0 0 0 0 0 1 5 8 11 15 23 33 41 41 38 39 44 50 53 53 48 39 35 38 41 48 52 43 30 33 39 40 47 52 42 37 40 51 64 66 57 46 38 34 29 19 11 8
0 0 0 0 0 0 2 6 9 12 17 25 32 38 40 41 45 48 52 55 54 48 43 43 48 54 63 70 63 52 54 58 61 69 67 54 50 52 58 65 65 55 44 37 32 26 20 15 12
0 0 0 0 0 0 2 5 9 11 17 24 28 34 40 46 49 50 53 53 50 47 45 49 57 64 74 80 75 66 63 66 71 76 73 64 61 62 62 64 63 54 45 41 36 30 28 24 20
0 0 0 0 0 0 1 5 8 11 16 22 28 34 41 49 52 52 53 51 48 47 48 55 63 72 78 79 74 65 58 61 70 75 75 70 68 67 65 63 60 53 47 47 46 43 40 36 33
0 0 0 0 0 0 2 6 8 10 14 23 32 36 41 48 52 52 51 51 50 52 55 60 67 75 77 75 69 60 53 55 63 69 71 71 68 64 62 61 57 51 47 47 48 48 43 40 40
0 0 0 0 0 0 2 5 8 9 15 27 35 37 39 43 47 48 49 51 54 59 62 63 67 72 72 69 65 60 55 54 56 60 63 64 58 54 56 56 53 49 45 41 42 42 38 35 36
0 0 0 0 0 0 1 4 6 8 15 28 37 38 38 39 40 41 43 47 53 59 62 63 65 67 66 64 63 62 59 57 55 55 54 51 47 46 49 50 49 47 42 39 38 38 34 30 29
0 0 0 0 0 0 1 4 5 8 15 27 37 40 39 37 35 33 33 38 46 53 56 59 61 62 62 63 64 65 63 60 56 52 47 43 41 42 44 44 43 43 40 38 37 35 32 29 29
0 0 0 0 0 0 1 4 7 11 18 28 37 40 38 34 28 24 23 26 32 39 45 51 55 57 58 60 62 63 61 57 53 48 43 40 39 39 38 38 39 39 38 36 34 31 28 27 28
0 0 0 0 0 0 1 3 9 16 22 27 34 37 35 28 20 16 14 16 19 25 32 39 46 50 52 53 55 58 56 52 48 45 42 40 38 36 33 32 34 35 34 32 30 26 24 23 23
0 0 0 0 0 0 0 3 11 21 25 26 29 33 31 24 15 10 10 10 12 17 22 28 34 40 43 46 48 49 49 46 43 42 41 39 35 31 28 26 27 28 27 25 23 21 19 17 17
0 0 0 0 0 0 0 3 12 23 28 26 26 28 27 19 11 8 9 9 10 12 16 20 25 30 35 39 40 40 39 38 38 39 39 36 30 25 22 20 20 20 19 17 15 15 14 13 14
0 0 0 0 0 0 0 2 10 20 26 26 27 28 22 14 9 7 7 7 8 8 11 14 18 23 28 32 33 32 29 28 30 32 32 29 24 19 16 16 15 15 14 13 11 11 11 11 11
0 0 0 0 0 0 0 2 8 17 24 28 32 31 22 12 7 6 5 5 5 5 7 9 11 14 17 21 24 24 22 20 21 23 23 19 15 13 13 12 12 12 11 10 10 9 10 9 8
0 0 0 0 0 0 0 3 9 17 25 31 35 32 21 11 7 6 4 3 3 3 4 5 5 5 6 9 13 14 14 14 15 16 14 9 7 7 8 7 7 7 6 7 7 8 8 7 5
0 0 0 0 0 0 0 3 9 18 27 33 35 29 19 11 8 5 3 2 2 2 2 2 1 1 1 2 4 7 8 9 10 10 8 4 3 3 3 2 2 2 3 4 4 4 4 3 2
0 0 0 0 0 0 0 2 7 15 25 31 31 25 18 11 6 3 1 1 1 1 1 1 0 0 0 0 1 2 3 4 5 5 4 2 1 1 0 0 0 1 1 2 2 1 1 1 0
0 0 0 0 0 0 0 1 3 10 20 27 27 22 16 9 3 1 0 0 0 0 0 0 0 0 0 0 0 0 1 1 2 2 1 1 1 0 0 0 0 0 0 1 1 0 0 0 0
0 0 0 0 0 0 0 0 2 8 16 25 26 21 14 7 2 0 0 0 0 0 0 0 0 0 0 0 0 0 0 0 1 1 0 0 0 0 0 0 0 0 0 0 0 0 0 0 0
Wind_Speed
9 13 11 9 9 10 16 15 5 6 5 5 4 4 6 8 8 8 6 16 21 20 18 16 15 15 16 15 14 14 14 14 13 13 12 12 11 10 10 10 10 9 9 10 10 9 9 9 9
10 13 11 9 10 13 14 11 5 6 7 5 4 4 8 9 12 12 11 18 21 19 17 15 15 15 15 15 15 14 14 14 13 13 12 12 11 10 10 9 9 9 9 9 9 9 9 9 9
11 16 10 9 15 16 11 1 4 6 7 4 4 5 6 8 10 12 13 19 20 18 17 16 16 15 15 15 15 15 14 14 13 13 12 11 11 10 9 9 9 9 8 8 9 9 9 8 8
9 9 8 11 17 19 11 3 2 2 5 6 5 6 8 6 9 15 16 19 19 19 18 16 15 15 14 14 14 14 14 14 13 13 12 11 10 9 9 9 9 8 8 8 8 8 8 8 7
11 8 12 14 18 16 7 5 4 5 5 6 5 9 9 7 12 17 16 18 18 19 18 16 15 15 14 14 14 13 13 13 12 12 11 11 10 9 8 8 8 8 8 8 8 7 7 7 7
9 9 12 15 17 13 6 5 5 8 6 6 7 10 9 5 7 13 15 16 18 19 18 15 16 16 14 14 13 12 12 12 11 11 11 10 9 9 8 8 8 7 8 8 8 7 7 7 6
12 12 14 17 14 9 5 4 6 7 5 3 6 9 10 9 7 10 13 15 17 18 17 15 14 14 14 13 13 12 11 10 10 10 10 10 10 9 9 8 8 8 8 8 8 8 7 7 6
12 13 17 17 13 7 5 5 5 6 3 1 3 7 10 8 7 10 13 15 16 16 15 13 14 13 12 12 13 12 11 11 10 9 9 9 9 10 9 9 8 8 8 8 8 8 7 7 6
15 13 15 15 11 4 5 6 6 3 3 2 3 7 14 13 9 11 12 13 13 14 13 12 13 12 11 12 12 12 11 10 10 9 10 9 8 9 9 11 11 10 10 9 9 9 8 7 7
11 12 16 12 5 1 4 5 5 6 6 6 8 14 16 15 11 11 12 12 13 13 13 11 11 10 10 10 10 8 8 8 8 7 9 7 6 5 8 10 13 12 10 10 10 10 9 8 6
13 16 14 6 5 5 1 4 2 4 4 5 9 12 13 13 12 9 9 9 9 10 9 10 10 7 6 7 7 5 4 6 7 7 8 6 4 3 3 4 7 8 9 7 8 8 7 8 6
14 13 12 6 3 5 6 2 3 1 4 6 10 9 10 10 10 9 9 7 8 7 6 8 10 7 5 5 4 4 3 4 4 5 5 4 2 2 2 3 5 5 4 5 5 5 8 8 6
13 11 8 8 4 7 8 3 3 5 7 8 11 9 5 8 8 8 8 10 8 5 3 5 7 6 4 4 3 3 2 3 2 3 3 2 2 2 2 2 2 4 4 4 4 5 6 6 5
10 11 9 9 9 10 9 7 6 5 7 9 9 9 6 6 9 10 12 10 9 4 2 5 6 6 4 4 2 2 2 2 1 2 2 1 1 1 1 1 1 2 2 3 4 5 3 3 3
9 10 10 11 12 11 10 11 9 9 8 8 9 10 10 11 13 13 11 9 8 6 3 5 6 6 5 4 2 2 2 2 2 2 1 1 1 1 1 1 1 1 2 3 3 3 2 3 2
10 12 12 13 14 12 13 12 10 9 8 8 9 9 11 12 12 10 10 10 7 6 5 5 6 6 5 3 2 1 2 2 2 2 1 1 1 1 1 2 1 1 2 2 2 2 2 3 2
12 13 14 13 13 12 13 9 8 8 9 9 10 10 10 12 12 12 10 9 8 8 7 7 7 6 4 3 2 1 2 2 2 2 2 2 1 1 1 1 1 1 2 2 3 2 2 3 3
11 15 15 13 13 13 12 9 11 11 10 10 11 11 11 12 12 11 9 9 10 9 8 8 7 6 4 2 1 1 2 2 2 3 3 3 2 3 2 1 1 2 2 2 2 2 2 3 2
12 13 10 9 11 12 11 10 11 11 9 10 11 12 12 13 12 10 9 10 10 9 9 8 7 6 4 2 1 1 1 1 2 2 3 3 3 3 2 2 2 2 2 2 3 2 2 2 2
13 10 7 6 7 8 8 10 10 10 9 9 11 11 13 13 11 10 10 10 10 9 9 8 8 6 5 3 2 1 2 2 2 2 3 3 3 3 3 3 2 1 2 2 3 2 2 2 3
10 9 6 7 7 8 8 10 10 10 8 8 11 11 12 12 11 10 9 9 10 9 9 8 8 8 7 5 3 2 1 1 2 2 2 3 3 3 3 3 3 3 2 2 2 2 3 3 3
8 9 8 8 9 8 11 9 9 10 9 9 10 11 12 11 11 10 9 9 9 8 8 9 8 8 7 6 5 4 3 3 3 2 2 2 3 4 4 4 3 3 2 2 3 2 2 3 3
8 8 10 9 7 8 9 9 7 9 11 11 11 12 12 11 11 10 10 9 9 9 8 8 8 9 8 7 6 5 4 3 3 3 3 3 4 5 5 5 3 3 3 3 3 3 2 1 2
8 10 9 9 8 12 10 10 7 10 12 11 11 13 13 12 11 11 10 9 9 9 9 8 9 9 9 9 8 7 6 5 5 5 4 4 4 5 6 6 5 4 3 3 3 2 2 2 1
9 7 4 5 7 8 8 6 3 8 11 15 15 15 14 12 11 10 10 9 9 9 9 9 9 9 9 9 9 8 7 6 7 5 5 5 4 5 6 6 5 5 4 4 4 3 3 2 1
8 9 5 4 6 6 6 3 4 7 11 16 17 16 14 12 11 10 10 9 9 9 9 8 9 9 9 9 8 8 8 5 5 6 5 5 4 5 5 5 6 6 6 5 4 4 4 4 4
8 8 6 6 9 5 3 1 6 11 15 17 18 16 14 13 12 11 10 10 9 9 9 9 9 9 9 8 8 8 8 7 6 6 5 5 5 5 6 6 6 6 5 5 4 4 4 5 5
9 7 5 5 4 5 4 3 3 9 14 17 17 15 14 13 12 11 10 9 9 9 9 9 9 9 8 8 7 7 7 7 7 6 7 6 6 6 6 6 6 6 6 6 5 4 4 5 5
7 7 7 6 3 4 2 1 2 5 9 13 15 15 15 14 13 11 9 9 9 9 9 8 8 8 8 8 7 7 7 7 7 6 7 6 6 6 6 6 6 7 7 6 6 6 6 7 6
6 6 6 5 6 5 3 1 1 3 7 12 14 15 14 13 12 11 10 9 9 9 8 8 7 7 7 6 6 6 6 6 7 7 7 6 7 6 6 6 7 8 8 7 8 8 8 8 8
Wind_Direction
257 256 252 255 246 241 250 251 203 142 130 95 80 66 64 59 76 100 125 117 116 122 130 131 132 135 139 142 143 142 141 139 138 137 133 131 129 126 125 124 121 122 122 121 121 121 119 117 115
261 250 244 247 250 245 241 236 185 129 96 87 117 120 94 83 96 115 123 117 121 127 135 132 133 136 140 143 144 145 146 145 144 143 141 139 138 136 134 131 127 126 126 126 127 127 126 125 126
258 257 247 241 244 255 266 205 133 123 127 161 162 125 94 91 101 114 124 126 126 131 129 127 134 135 139 144 147 148 150 149 148 148 147 146 145 143 141 138 136 133 131 132 133 132 132 133 135
236 230 237 245 247 246 254 152 123 162 173 180 167 115 86 72 105 120 134 130 129 131 127 131 134 135 138 143 148 151 151 152 152 153 152 152 150 149 148 147 145 141 139 140 140 138 139 142 142
239 239 232 245 251 254 241 133 152 240 208 185 162 111 81 43 98 125 138 132 133 129 127 132 131 133 136 141 144 148 150 151 152 154 155 154 153 153 155 156 154 152 152 150 148 147 147 149 152
224 232 238 244 247 245 232 155 194 238 225 186 156 124 107 111 117 138 135 134 131 126 127 131 133 134 135 137 138 140 144 148 151 153 155 156 157 159 162 163 163 163 161 159 158 158 159 161 166
243 248 251 255 254 232 212 169 219 235 230 210 156 131 130 133 149 140 131 126 123 126 130 140 140 136 134 133 133 134 137 142 145 150 154 159 163 167 170 172 172 171 170 170 170 170 171 173 177
245 265 267 264 262 238 179 185 220 248 236 289 120 136 133 136 158 140 132 127 126 127 134 142 146 144 145 141 138 137 138 141 145 152 160 166 172 178 181 182 183 182 181 183 182 182 183 185 192
242 257 264 262 258 221 157 199 197 198 229 125 90 109 132 144 166 151 138 131 128 129 136 147 148 151 156 150 143 145 146 148 154 163 169 175 190 191 192 204 181 188 191 193 192 192 192 193 203
230 247 252 267 285 265 159 199 190 190 204 161 138 119 136 145 157 155 143 137 136 136 142 149 148 154 160 148 144 158 166 161 182 177 177 196 211 204 201 186 178 187 195 200 202 201 200 209 208
229 246 265 295 328 329 228 180 153 207 189 163 133 127 136 148 151 146 126 125 128 132 136 142 136 143 143 132 150 164 170 161 196 189 182 205 216 207 195 158 171 186 195 204 200 202 215 215 218
237 247 268 279 259 277 274 184 137 117 88 84 98 115 133 136 131 128 122 116 107 114 129 132 133 132 124 126 145 162 163 160 186 171 177 204 227 224 190 173 181 189 201 210 198 208 220 224 229
236 249 249 265 246 241 252 221 160 143 120 102 95 99 111 125 124 116 100 87 80 81 105 104 112 111 111 113 147 151 149 152 166 136 172 206 219 235 233 204 183 194 203 210 223 223 223 229 231
228 241 232 230 227 226 230 214 186 162 144 126 119 121 111 87 88 86 85 88 90 79 27 71 86 91 83 86 80 76 96 111 117 110 151 211 245 239 249 244 223 234 235 209 215 236 234 242 244
249 244 231 224 220 213 215 218 191 167 154 138 120 105 91 75 68 68 71 82 103 114 70 61 83 77 66 68 58 59 52 65 56 82 87 70 306 355 333 282 254 270 269 249 232 232 232 230 238
237 239 233 218 215 207 212 213 179 170 161 141 119 103 87 72 67 72 85 88 87 91 76 61 78 78 70 63 54 55 28 43 57 54 54 51 45 20 319 283 274 255 272 273 254 242 231 233 215
225 229 229 212 198 203 209 212 169 180 172 148 129 114 102 88 74 67 65 74 74 73 68 61 60 61 69 75 71 59 56 42 45 56 43 25 15 330 258 266 301 294 275 266 261 241 241 239 225
227 227 221 201 184 205 206 193 161 188 178 153 138 123 106 92 82 78 70 65 63 64 63 59 58 49 49 77 84 82 68 60 51 56 47 24 359 349 333 280 272 274 258 249 256 257 235 235 213
258 247 226 192 177 203 204 178 170 179 178 161 138 124 112 101 94 87 78 68 65 59 57 55 54 44 35 40 29 62 73 65 61 61 55 36 18 2 326 319 266 250 256 254 257 250 230 227 181
268 258 228 179 173 208 201 183 172 171 173 152 135 126 119 113 100 88 78 68 62 56 55 53 46 38 30 24 13 39 55 59 68 54 53 33 20 2 343 337 307 276 268 262 260 254 236 229 197
259 264 236 188 188 218 223 201 178 173 166 141 131 125 119 114 106 96 82 71 63 57 52 50 43 36 29 16 17 42 62 58 55 53 49 29 22 25 9 352 347 341 322 291 279 257 242 232 222
246 261 261 233 208 219 225 221 190 175 164 155 141 129 120 114 109 100 89 75 66 62 59 53 47 40 30 23 29 28 43 42 34 32 38 38 34 28 20 4 354 350 345 335 317 311 277 232 229
246 248 249 247 237 247 231 238 199 171 181 172 154 140 128 121 113 102 91 82 71 62 59 55 50 44 36 33 33 34 45 43 34 30 30 30 39 33 23 18 7 3 359 354 346 340 334 282 243
244 244 245 248 243 243 245 242 197 181 181 165 158 142 131 124 114 107 101 91 78 67 61 57 53 46 40 38 37 38 42 41 38 31 26 27 37 35 25 26 20 20 14 7 2 351 351 330 303
245 246 247 255 253 256 284 260 162 168 166 163 158 143 132 126 121 116 105 91 80 68 61 57 55 50 42 42 42 39 36 43 41 32 28 27 34 37 28 28 26 25 21 14 11 16 12 9 27
241 242 233 244 260 258 276 271 121 146 148 145 143 135 133 128 120 110 99 91 83 73 64 60 58 54 48 46 45 40 34 39 40 35 38 38 36 38 30 34 35 29 27 25 20 35 32 36 48
238 251 246 253 271 279 258 110 120 132 125 128 133 136 136 126 119 110 101 92 84 76 67 63 62 58 51 49 49 48 41 40 42 42 43 42 35 38 35 38 41 35 30 31 34 42 41 47 49
256 258 267 264 278 273 249 213 188 150 143 141 143 142 133 126 118 110 103 96 89 82 76 69 65 63 57 54 47 49 45 44 44 45 45 40 37 38 38 41 43 41 36 35 45 51 48 59 59
251 257 274 289 284 291 299 275 168 187 169 154 149 143 136 131 124 118 111 103 98 90 81 74 70 66 61 59 56 50 47 47 50 50 48 44 42 43 44 45 49 50 44 39 46 53 58 59 62
274 265 273 288 303 307 313 87 73 156 172 149 141 135 130 126 122 118 111 103 96 90 86 80 73 72 69 67 62 56 53 53 53 53 51 49 44 45 46 46 51 54 51 46 48 51 52 55 58